This is the latest recevied weather packets stored in our database for station/object XQ6AK-15. If no packets are shown the sender has not sent any weather packets the latest 10 day(s).
| Time | Temp. | Humidity | Pressure | Rain* | Wind** | Luminosity | Snow |
|---|---|---|---|---|---|---|---|
| 1787928159 | 7.22° C | 99% | 1007.6 hPa | 6.1 mm | - | 12 W/m² | - |
| 1787927858 | 7.78° C | 99% | 1007.7 hPa | 4.83 mm | - | 14 W/m² | - |
| 1787927553 | 7.78° C | 99% | 1007.4 hPa | 3.05 mm | - | 29 W/m² | - |
| 1787927248 | 7.78° C | 99% | 1007.5 hPa | 1.78 mm | - | 31 W/m² | - |
| 1787926944 | 7.78° C | 99% | 1007.2 hPa | 1.27 mm | - | 46 W/m² | - |
| 1787926638 | 7.78° C | 99% | 1007.2 hPa | 1.27 mm | - | 47 W/m² | - |
| 1787926337 | 7.78° C | 99% | 1007.3 hPa | 1.78 mm | - | 61 W/m² | - |
| 1787926032 | 7.78° C | 99% | 1007.4 hPa | 3.05 mm | - | 53 W/m² | - |
| 1787925731 | 7.78° C | 99% | 1007.3 hPa | 1.78 mm | - | 39 W/m² | - |
| 1787925425 | 7.78° C | 99% | 1007.4 hPa | 0 mm | - | 37 W/m² | - |
| 1787925119 | 7.78° C | 99% | 1007.3 hPa | 1.78 mm | - | 67 W/m² | - |
| 1787924817 | 7.78° C | 99% | 1007.3 hPa | 1.27 mm | - | 69 W/m² | - |
| 1787924512 | 7.78° C | 99% | 1007.3 hPa | 1.27 mm | - | 72 W/m² | - |
| 1787924208 | 7.78° C | 99% | 1007.2 hPa | 0 mm | - | 32 W/m² | - |
| 1787923903 | 7.78° C | 99% | 1007.4 hPa | 0 mm | - | 59 W/m² | - |
| 1787923603 | 7.78° C | 99% | 1007.3 hPa | 1.78 mm | - | 63 W/m² | - |
| 1787923298 | 7.78° C | 99% | 1007.2 hPa | 0 mm | - | 44 W/m² | - |
| 1787922993 | 7.78° C | 99% | 1007.3 hPa | 0 mm | - | 40 W/m² | - |
| 1787922693 | 7.78° C | 99% | 1007.1 hPa | 0 mm | - | 36 W/m² | - |
| 1787922392 | 7.78° C | 99% | 1007.1 hPa | 0 mm | - | 51 W/m² | - |
| 1787922086 | 7.78° C | 99% | 1006.9 hPa | 0 mm | - | 30 W/m² | - |
| 1787921784 | 7.78° C | 99% | 1007 hPa | 0 mm | - | 35 W/m² | - |
| 1787921478 | 7.22° C | 99% | 1007 hPa | 0 mm | - | 32 W/m² | - |
| 1787921173 | 7.22° C | 99% | 1007 hPa | 0 mm | - | 52 W/m² | - |
| 1787920869 | 7.22° C | 99% | 1006.9 hPa | 0 mm | - | 50 W/m² | - |
* Rain latest hour (hover to see other rain measurements)
** Current wind speed in m/s (hover to see current wind gust speed)